Location: Stara Lesna
(49.1528°N, 20.2911°E)
Time: 09:18:38
(UTC+02:00)

Cosmos 1975 - Pass Details

Date: 21 September 2019
Orbit: 544 x 561 km, 82.5° (Epoch: 18 October)

Event Time Altitude Azimuth Distance (km) Brightness Sun altitude
Rises 05:19:05 0° 354° (N) 2,747 6.5 -11.2°
Reaches altitude 10° 05:21:18 10° 360° (N) 1,850 5.7 -10.8°
Maximum altitude 05:25:17 50° 77° (ENE) 715 3.9 -10.2°
Drops below altitude 10° 05:29:14 10° 153° (SSE) 1,844 5.7 -9.6°
Sets 05:31:27 0° 159° (SSE) 2,736 6.5 -9.2°
